This demonstration page uses our WeatherBlox Daily Observations layout. Learn more.

Left ArrowRight Arrow

Hourly Observations for May 24, 2019

Temp ( °F °C ) Dew Point ( °F °C ) Humidity (%) Winds ( mph kmh ) Pressure ( in mb ) Visibility ( mi km ) Precip ( " mm )
12:52 am 00:52 Cloudy with Thunderstorms 57 13.9 55 12.8 93 93 NNE 8 13 30.00 1016 5 8 0.32 8.13
1:10 am 01:10 Cloudy with Thunderstorms 58 14.4 55 12.8 90 90 NE 14 22 29.97 1015 5 8 0.05 1.27
1:26 am 01:26 Cloudy with Light Rain 58 14.4 55 12.8 90 90 E 6 9 29.96 1015 7 11 0.05 1.27
1:52 am 01:52 Cloudy 58 14.4 55 12.8 90 90 E 14 22 29.95 1014 10 16 0.05 1.27
2:06 am 02:06 Cloudy 58 14.4 55 12.8 90 90 E 14 22 29.92 1013 10 16 0.00 0.00
2:23 am 02:23 Cloudy 58 14.4 55 12.8 90 90 E 13 20 29.93 1014 10 16 0.00 0.00
2:30 am 02:30 Cloudy 58 14.4 55 12.8 90 90 ESE 13 20 29.92 1013 10 16 0.00 0.00
2:52 am 02:52 Cloudy 59 15 56 13.3 90 90 ESE 12 19 29.89 1012 10 16 0.00 0.03
3:13 am 03:13 Cloudy 59 15 56 13.3 90 90 ESE 12 19 29.90 1013 10 16 0.00 0.00
3:32 am 03:32 Cloudy 60 15.6 57 13.9 90 90 SE 14 22 29.88 1012 10 16 0.00 0.00
3:52 am 03:52 Cloudy 60 15.6 57 13.9 90 90 SE 14 22 29.86 1011 10 16 0.00 0.00
4:29 am 04:29 Cloudy 61 16.1 57 13.9 87 87 SE 13 20 29.86 1011 10 16 0.00 0.00
4:44 am 04:44 Cloudy with Thunderstorms 61 16.1 57 13.9 87 87 SSE 14 22 29.88 1012 10 16 0.00 0.00
4:52 am 04:52 Cloudy with Thunderstorms 61 16.1 57 13.9 87 87 SSE 13 20 29.88 1012 10 16 0.00 0.00
5:39 am 05:39 Cloudy with Strong Thunderstorms 61 16.1 58 14.4 90 90 ESE 25 41 29.83 1010 6 10 0.09 2.29
5:52 am 05:52 Windy with Storms Likely 61 16.1 58 14.4 90 90 ESE 21 33 29.81 1010 10 16 0.12 3.05
6:02 am 06:02 Cloudy 61 16.1 58 14.4 90 90 SE 17 28 29.82 1010 10 16 0.01 0.25
6:52 am 06:52 Cloudy 62 16.7 59 15 90 90 SSE 13 20 29.82 1010 10 16 0.01 0.25
7:52 am 07:52 Cloudy 63 17.2 61 16.1 93 93 S 8 13 29.85 1011 10 16 0.00 0.00
8:52 am 08:52 Cloudy 65 18.3 62 16.7 90 90 SSE 12 19 29.85 1011 10 16 0.00 0.00
9:52 am 09:52 Cloudy 68 20 63 17.2 84 84 S 10 17 29.84 1010 10 16 0.00 0.00
10:15 am 10:15 Cloudy 69 20.6 63 17.2 81 81 SSW 13 20 29.81 1010 10 16 0.00 0.00
10:52 am 10:52 Cloudy 69 20.6 63 17.2 81 81 SW 13 20 29.84 1010 10 16 0.00 0.00
11:25 am 11:25 Cloudy 70 21.1 62 16.7 76 76 SW 14 22 29.83 1010 10 16 0.00 0.00
11:52 am 11:52 Cloudy 70 21.1 62 16.7 76 76 WSW 14 22 29.86 1011 10 16 0.00 0.00
12:52 pm 12:52 Mostly Cloudy 72 22.2 61 16.1 68 68 SW 12 19 29.86 1011 10 16 0.00 0.00
1:52 pm 13:52 Partly Cloudy 75 23.9 61 16.1 62 62 WSW 10 17 29.85 1011 10 16 0.00 0.00
2:52 pm 14:52 Partly Cloudy 76 24.4 58 14.4 54 54 SSW 12 19 29.85 1011 10 16 0.00 0.00
3:52 pm 15:52 Partly Cloudy 78 25.6 58 14.4 50 50 SSW 12 19 29.83 1010 10 16 0.00 0.00
4:52 pm 16:52 Partly Cloudy 79 26.1 58 14.4 49 49 S 12 19 29.81 1010 10 16 0.00 0.00
5:52 pm 17:52 Partly Cloudy 79 26.1 55 12.8 44 44 S 15 24 29.79 1009 10 16 0.00 0.00
7:52 pm 19:52 Mostly Cloudy 78 25.6 57 13.9 48 48 S 7 11 29.77 1008 10 16 0.00 0.00
8:52 pm 20:52 Mostly Cloudy 75 23.9 59 15 58 58 S 7 11 29.76 1008 10 16 0.00 0.00
9:52 pm 21:52 Mostly Cloudy 74 23.3 59 15 60 60 S 6 9 29.78 1009 10 16 0.00 0.00
10:52 pm 22:52 Mostly Cloudy 69 20.6 60 15.6 73 73 S 3 6 29.81 1010 10 16 0.00 0.00
11:52 pm 23:52 Mostly Cloudy 66 18.9 60 15.6 81 81 SSE 8 13 29.80 1009 10 16 0.00 0.00

Powered by AerisWeather